Content
SEND FEEDBACK

Daily
Averages
Monthly
Summary
United States of America

GLEN CANYON CITY, UTAH


Home > North America > United States > Utah
Elevation: 4133 feet     Latitude: 37 05N     Longitude: 111 40W

WEATHER
 
SELECT A DAY
Number of Records: 194,800;   Date Range: 1/1/95 - 8/28/14
 
SHARE

PRINT THIS DATA

[ ← Previous Day ]
WEATHER ALMANAC - NOVEMBER 21, 2013
[ Next Day → ]
[ °C ]   °F
Weather ElementAverageHighLow
Temperature49.1 °F55 °F (1:53 pm)45 °F (7:53 am)
Dewpoint42.4 °F44.1 °F (3:31 pm)39 °F (1:53 am)
Humidity78.1 %86 % (3:53 am)57 % (1:53 pm)
Barometer29.92 in30.06 in (11:32 pm)29.83 in (2:53 am)
Wind Speed3.1 mph8.1 mph (8:53 pm)
Weather ElementAverage
Visibility8 mi
Wind DirectionSE (135.3 °)

Weather ElementTotal
Precipitation0.52 in
Heating Degree Days15 (Base 65)
Averaged from 32 records on November 21, 2013
WEATHER CONDITIONS BREAKOUT
WIND DIRECTION BREAKOUT
WEATHER BY HOUR - NOVEMBER 21, 2013
[ °C ]   °F
Local TimeTemperatureDewpointHumidityBarometerVisibilityWind DirectionWind SpeedGust SpeedPrecipitationEventsConditions
1:53 AM46.9 °F39.0 °F74 %29.84 in10.0 miCalm0.00 inOvercast
2:53 AM48.0 °F39.0 °F71 %29.83 in10.0 miCalmOvercast
3:53 AM46.0 °F42.1 °F86 %29.83 in10.0 miCalm0.03 inRainLight Rain
4:53 AM46.9 °F41.0 °F80 %29.83 in10.0 miCalm0.00 inOvercast
5:53 AM46.0 °F41.0 °F83 %29.85 in10.0 miCalmOvercast
6:53 AM46.0 °F42.1 °F86 %29.87 in9.0 miCalmOvercast
7:53 AM45.0 °F41.0 °F86 %29.88 in7.0 miCalmScattered Clouds
8:21 AM46.0 °F42.1 °F86 %29.95 in5.0 miSSW (210°)3.5 mphMostly Cloudy
8:44 AM48.0 °F43.0 °F83 %29.96 in9.0 miSSE (160°)3.5 mphMostly Cloudy
8:53 AM46.9 °F42.1 °F83 %29.91 in10.0 miSouth (190°)3.5 mphScattered Clouds
9:53 AM48.0 °F42.1 °F80 %29.91 in10.0 miSouth (180°)3.5 mph0.00 inMostly Cloudy
10:53 AM51.1 °F43.0 °F74 %29.90 in10.0 miNNW (340°)6.9 mphClear
11:53 AM53.1 °F42.1 °F66 %29.88 in10.0 miNorth (350°)5.8 mphScattered Clouds
12:53 PM54.0 °F41.0 °F62 %29.86 in10.0 miVariable4.6 mphPartly Cloudy
1:53 PM55.0 °F39.9 °F57 %29.85 in10.0 miNorth (360°)5.8 mphPartly Cloudy
2:53 PM53.1 °F39.9 °F61 %29.85 in10.0 miNorth (350°)5.8 mphMostly Cloudy
3:23 PM52.0 °F43.0 °F71 %29.94 in2.5 miSW (220°)3.5 mph0.00 inRainLight Rain
3:26 PM52.0 °F43.0 °F71 %29.94 in1.5 miWSW (240°)3.5 mph0.01 inRainHeavy Rain
3:31 PM51.1 °F44.1 °F77 %29.94 in0.8 miCalm0.05 inRainHeavy Rain
3:39 PM51.1 °F43.0 °F74 %29.95 in2.0 miCalm0.07 inRainLight Rain
3:46 PM51.1 °F43.0 °F74 %29.94 in7.0 miNNW (330°)3.5 mph0.07 inRainLight Rain
3:53 PM51.1 °F44.1 °F77 %29.88 in10.0 miWNW (300°)3.5 mph0.07 inRainLight Rain
4:53 PM50.0 °F44.1 °F80 %29.90 in10.0 miWest (260°)3.5 mph0.00 inOvercast
5:53 PM50.0 °F44.1 °F80 %29.92 in10.0 miNorth (360°)4.6 mph0.01 inOvercast
6:53 PM48.9 °F43.0 °F80 %29.94 in10.0 miCalmMostly Cloudy
7:53 PM48.9 °F44.1 °F83 %29.95 in10.0 miNE (50°)4.6 mph0.00 inRainLight Rain
8:53 PM48.0 °F44.1 °F86 %29.96 in6.0 miSE (130°)8.1 mph0.04 inRainLight Rain
9:53 PM48.0 °F43.0 °F83 %29.97 in7.0 miEast (100°)5.8 mph0.05 inRainLight Rain
10:53 PM48.0 °F44.1 °F86 %29.97 in7.0 miNE (40°)3.5 mph0.07 inRainLight Rain
11:09 PM46.9 °F43.0 °F86 %30.05 in10.0 miNE (40°)5.8 mph0.00 inRainLight Rain
11:32 PM46.9 °F43.0 °F86 %30.06 in6.0 miENE (60°)3.5 mph0.02 inRainLight Rain
11:53 PM46.9 °F43.0 °F86 %29.99 in6.0 miENE (60°)3.5 mph0.03 inRainLight Rain
Hourly data recorded from KPGA, located miles away from Glen Canyon City, Utah







STORIES FROM OUR PARTNERS